Regional Weather Roundup
Issued by NWS

Home | Current Version | Previous Version | Text Only | Print | Product List | Glossary Off
Versions: 1 2 3 4 5 6 7 8 9 10 11 12 13 14 15 16 17 18 19 20 21 22 23 24 25 26 27 28 29 30 31 32 33 34 35 36 37 38 39 40 41 42 43 44 45 46 47 48 49 50

000
ASUS43 KMPX 020210
RWRMN
WEATHER ROUNDUP FOR MINNESOTA
NATIONAL WEATHER SERVICE TWIN CITIES/CHANHASSEN MN
800 PM CST THU DEC 01 2016


NOTE: "FAIR" INDICATES FEW OR NO CLOUDS BELOW 12,000 FEET WITH NO
SIGNIFICANT WEATHER AND/OR OBSTRUCTIONS TO VISIBILITY. N/A MEANS
CURRENT SKY AND/OR WEATHER CONDITIONS ARE NOT AVAILABLE.

MNZ060>063-068>070-020300-
   Twin Cities Metro

CITY           SKY/WX    TMP DP  RH WIND       PRES   REMARKS
TWIN CITIES    CLOUDY    35  26  69 NW9       29.97R WCI  28
ST PAUL        CLOUDY    35  27  72 N9        29.99R WCI  28
CRYSTAL        CLOUDY    34  24  67 N7        29.97R WCI  28
BLAINE         CLOUDY    34  27  75 N10       29.97R WCI  26
LAKEVILLE      CLOUDY    34  28  80 NW12      29.96R WCI  25
EDEN PRAIRIE   CLOUDY    36  24  62 NW9       29.96R
SOUTH ST PAUL  CLOUDY    36  27  70 NW7       29.97R
LAKE ELMO      CLOUDY    34  28  80 NW7       29.97S WCI  28
$$
MNZ001>005-007-008-013>017-022>024-027-028-020300-
   Northwest Minnesota

CITY           SKY/WX    TMP DP  RH WIND       PRES   REMARKS
BEMIDJI        CLOUDY    26  22  86 NW9       29.99R WCI  16
HALLOCK        CLOUDY    28  25  86 N9        30.06R WCI  20
ROSEAU         CLOUDY    27  21  80 N8        30.02R WCI  18
WARROAD        CLOUDY    23  19  86 N7        30.02R WCI  15
THIEF RVR FALL CLOUDY    27  22  81 N12       30.03R WCI  17
CROOKSTON      CLOUDY    28  23  80 N10G16    30.06R WCI  19
FOSSTON        CLOUDY    25  21  86 NW8       30.01S WCI  16
DETROIT LAKES  CLOUDY    28  25  86 N10       30.02R WCI  19
MOORHEAD       CLOUDY    28  25  86 N8        30.05S WCI  20
PARK RAPIDS    CLOUDY    28  20  71 N8        29.98R WCI  20
$$
MNZ006-009>011-018-025>026-020300-
   North Central Minnesota

CITY           SKY/WX    TMP DP  RH WIND       PRES   REMARKS
BAUDETTE       CLOUDY    26  21  81 NW9       29.99R WCI  17
FLAG ISLAND    CLOUDY    25  21  86 N10       30.00R WCI  15
INTL FALLS     CLOUDY    27  21  78 NW9       29.97R WCI  18
WASKISH        CLOUDY    27  21  80 NW8       30.00R WCI  18
BIG FORK       CLOUDY    27  21  80 NW5       29.97R WCI  21
LONGVILLE      CLOUDY    28  21  74 N5        29.97R WCI  23
GRAND RAPIDS   CLOUDY    27  22  81 N10       29.98R WCI  17
CRANE LAKE     CLOUDY    25  23  93 N5        29.97R WCI  19
ORR            CLOUDY    27  19  74 NW8       29.92R WCI  18
COOK           CLOUDY    27  21  80 W6        29.95R WCI  20
$$
MNZ012-019>021-037-020300-
   Northeast Minnesota

CITY           SKY/WX    TMP DP  RH WIND       PRES   REMARKS
DULUTH         CLOUDY    28  21  75 NW14G20   29.93R WCI  17
ELY            CLOUDY    25  21  86 CALM      29.92R
HIBBING        CLOUDY    26  21  81 NW9       29.95R WCI  17
EVELETH        CLOUDY    28  21  77 NW9       29.95R WCI  19
DULUTH HARBOR  CLOUDY    32  23  69 NW12      29.98R WCI  23
TWO HARBORS    CLOUDY    30  23  74 N6        29.92R WCI  24
SILVER BAY     CLOUDY    28  23  80 NW7       29.91R WCI  21
GRAND MARAIS     N/A     29  21  72 VRB5      29.91R WCI  24
G MARAIS ARPRT CLOUDY    21  16  79 NW14G22   29.84R WCI   8
$$
MNZ029>031-032-039>041-046>048-054>057-064-020300-
   West Central Minnesota

CITY           SKY/WX    TMP DP  RH WIND       PRES   REMARKS
FERGUS FALLS   CLOUDY    28  25  86 N12       30.06R WCI  18
WHEATON        CLOUDY   N/A N/A N/A NW10      30.05R
MORRIS         CLOUDY    30  27  86 NW14      30.01R WCI  20
ALEXANDRIA     CLOUDY    30  24  78 NW7       30.00R WCI  23
ELBOW LAKE     CLOUDY    30  26  87 NW12      30.02R WCI  20
WADENA         CLOUDY    28  23  80 N8        29.99R WCI  20
GLENWOOD       CLOUDY    30  27  86 NW8       29.99S WCI  23
APPLETON       CLOUDY    32  27  80 N14       30.02R WCI  22
BENSON         CLOUDY    30  27  86 N9        30.01R WCI  22
ORTONVILLE     CLOUDY    30  27  86 N12       30.02R WCI  21
MADISON        CLOUDY    34  32  93 N9        30.03R WCI  26
WILLMAR        CLOUDY    32  30  93 NW10      30.01R WCI  24
$$
MNZ033>034-036-042>043-049>051-058-059-020300-
   Central Minnesota

CITY           SKY/WX    TMP DP  RH WIND       PRES   REMARKS
ST CLOUD       CLOUDY    32  25  75 N7        29.98R WCI  26
PAYNESVILLE    CLOUDY    32  28  85 NW8       30.00R WCI  25
AITKIN         CLOUDY    30  21  69 NW7       29.96R WCI  23
PINE RIVER     CLOUDY    28  23  80 N5        30.01R WCI  23
BRAINERD       CLOUDY    30  23  75 NW13      29.98R WCI  20
STAPLES        CLOUDY    28  23  80 NW9       29.99R WCI  20
LONG PRAIRIE   CLOUDY    30  25  80 W8        30.00R WCI  23
LITTLE FALLS   CLOUDY    32  23  69 NW5       29.99R WCI  27
LITCHFIELD     CLOUDY    34  28  80 NW8       29.99R WCI  27
BUFFALO        CLOUDY    34  27  77 NW5       29.99R WCI  30
MAPLE LAKE     CLOUDY    35  29  79 NW6       29.99R WCI  29
$$
MNZ037-044-045-052-053-020300-
   East Central Minnesota

CITY           SKY/WX    TMP DP  RH WIND       PRES   REMARKS
PRINCETON      CLOUDY    34  25  69 N6        29.98R WCI  29
MORA           CLOUDY    32  27  80 N7        29.99R WCI  26
CAMBRIDGE      CLOUDY    34  25  69 NW6       29.96R WCI  29
RUSH CITY      CLOUDY    30  25  80 NW6       29.98R WCI  24
MOOSE LAKE     CLOUDY    30  21  69 N10G16    29.95R WCI  21
HINCKLEY       CLOUDY    32  27  80 NW8       29.97R WCI  25
CLOQUET        CLOUDY    28  19  69 NW10      29.95R WCI  19
MCGREGOR       CLOUDY    30  23  74 NW10      29.97R WCI  21
$$
MNZ071>073-080-081-089-090-097-098-020300-
   Southwest Minnesota

CITY           SKY/WX    TMP DP  RH WIND       PRES   REMARKS
MONTEVIDEO     CLOUDY    30  30 100 N9        30.04R WCI  22
GRANITE FALLS  CLOUDY    33  30  86 NW8       30.03R WCI  27
CANBY          CLOUDY    32  29  86 NW10      30.04R WCI  24
MARSHALL       CLOUDY    32  28  85 NW8       30.03R WCI  25
REDWOOD FALLS  CLOUDY    33  28  81 NW7       30.01R WCI  27
OLIVIA         CLOUDY    34  32  93 NW10      30.00R WCI  26
PIPESTONE      CLOUDY    34  30  86 N5        29.99S WCI  30
WINDOM         CLOUDY    34  30  86 CALM      30.00R
WORTHINGTON    CLOUDY    32  30  92 NW6       30.01R WCI  26
JACKSON        CLOUDY    32  30  93 NW9       30.00S WCI  24
TRACY          CLOUDY    33  30  89 N8        30.01S WCI  26
SLAYTON        CLOUDY    31  29  91 NW7       30.01S WCI  25
$$
MNZ065>067-074>077-082>085-091>093-020300-
   South Central Minnesota

CITY           SKY/WX    TMP DP  RH WIND       PRES   REMARKS
MANKATO        LGT RAIN  34  32  92 NW10      29.99R WCI  26
NEW ULM        CLOUDY    34  32  93 NW9       30.00R WCI  26
ST JAMES       CLOUDY    34  30  86 W9        30.01R WCI  26
FAIRMONT       CLOUDY    34  31  88 NW8       30.01R WCI  27
GLENCOE        CLOUDY    36  32  87 NW8       29.97S
FARIBAULT      CLOUDY    36  30  80 NW6       29.97R
OWATONNA       CLOUDY    36  32  87 W5        29.96S
WASECA         CLOUDY    34  32  93 W7        29.98R WCI  28
ALBERT LEA     CLOUDY    37  36  93 W5        29.97R
$$
MNZ078>079-086>088-094>096-020300-
   Southeast Minnesota

CITY           SKY/WX    TMP DP  RH WIND       PRES   REMARKS
ROCHESTER      CLOUDY    34  33  96 W7        29.95R WCI  28
RED WING       CLOUDY    37  28  70 N9        29.96R
STANTON        DRIZZLE   36  32  84 NW6       29.95S
DODGE CENTER   CLOUDY    34  32  93 W9        29.95R WCI  26
WINONA         CLOUDY    36  34  93 NW7       29.96R
AUSTIN         CLOUDY    36  32  87 NW6       29.95S
PRESTON        CLOUDY    33  32  94 W6        29.95R WCI  28
$$
ABBREVIATIONS USED IN REMARKS
   TC - TEMPERATURES IN CELSIUS
  WCI - WIND CHILL INDEX
   HX - HEAT INDEX
  VSB - VISIBILITY
$$




USA.gov is the U.S. government's official web portal to all federal, state and local government web resources and services.